Grand Island, NE

8:21 AM CDT on August 22, 2017 (GMT -0500)
Central Nebraska Regional

Weather History for KGRI - August, 2014

Change the Weather History Date:

Sunday, August 17, 2014

  Actual Average Record
Temperature  
Mean Temperature 77 °F 74 °F  
Max Temperature 88 °F 86 °F 106 °F (1936)
Min Temperature 66 °F 63 °F 45 °F (1943)
Degree Days  
Heating Degree Days 0 0  
Month to date heating degree days 0 0  
Since 1 June heating degree days 14 26  
Since 1 July heating degree days 4 2  
Cooling Degree Days 12 9  
Month to date cooling degree days 155 173  
Year to date cooling degree days 796 800  
Since 1 June cooling degree days 677 735  
Growing Degree Days 27 (Base 50)    
Moisture  
Dew Point 66 °F    
Average Humidity 74    
Maximum Humidity 93    
Minimum Humidity 55    
Precipitation  
Precipitation 0.15 in 0.10 in 1.73 in (2010)
Month to date precipitation 3.19 1.83  
Year to date precipitation 19.52 19.48  
Snow  
Snow 0.00 in 0.00 in - ()
Month to date snowfall 0.0 0.0  
Since 1 June snowfall 0.0 0.0  
Since 1 July snowfall 0.0 0.0  
Snow Depth 0.00 in    
Sea Level Pressure  
Sea Level Pressure 29.95 in    
Wind  
Wind Speed 7 mph (ESE)    
Max Wind Speed 40 mph    
Max Gust Speed 50 mph    
Visibility 6 miles    
Events Fog , Rain , Thunderstorm    
T = Trace of Precipitation, MM = Missing Value Source: NWS Daily Summary

Daily Weather History Graph

Daily Weather History Graph

Search for Another Location

Airport or City:

Trip Planner

Search our weather history database for the weather conditions in past years. The results will help you decide how hot, cold, wet, or windy it might be!

Date:

Astronomy

Aug. 17, 2014 Rise Set
Actual Time 6:45 AM CDT 8:28 PM CDT
Civil Twilight 6:15 AM CDT 8:57 PM CDT
Nautical Twilight 5:40 AM CDT 9:33 PM CDT
Astronomical Twilight 5:01 AM CDT 10:11 PM CDT
Moon 12:11 AM CDT (8/17) 2:35 PM CDT (8/17)
Length of Visible Light 14h 42m
Length of Day
13h 43m
Waning Gibbous, 48% of the Moon is Illuminated
Aug 17
Waning Gibbous
Aug 25
New
Sep 2
First Quarter
Sep 8
Full
Sep 15
Last Quarter

Hourly Weather History & Observations

Time (CDT) Temp. Heat Index Dew Point Humidity Pressure Visibility Wind Dir Wind Speed Gust Speed Precip Events Conditions
12:53 AM 73.0 °F - 70.0 °F 90% 29.93 in 8.0 mi South 4.6 mph - N/A   Clear
1:53 AM 71.6 °F - 69.8 °F 94% 29.97 in 7.0 mi Calm Calm - N/A   Clear
2:53 AM 69.1 °F - 66.9 °F 93% 29.93 in 5.0 mi WSW 3.5 mph - N/A   Clear
3:53 AM 69.1 °F - 66.0 °F 90% 29.93 in 4.0 mi Calm Calm - N/A   Clear
4:26 AM 68.0 °F - 66.0 °F 93% 29.97 in 1.5 mi Calm Calm - N/A   Clear
4:35 AM 68.0 °F - 66.9 °F 96% 29.97 in 0.8 mi Calm Calm - N/A   Clear
4:41 AM 69.1 °F - 66.9 °F 93% 29.97 in 2.0 mi Calm Calm - N/A   Clear
4:50 AM 68.0 °F - 64.4 °F 88% 29.97 in 3.0 mi Calm Calm - N/A   Clear
4:53 AM 68.0 °F - 64.9 °F 90% 29.93 in 2.5 mi Calm Calm - N/A   Clear
5:06 AM 70.0 °F - 66.9 °F 90% 29.98 in 3.0 mi West 3.5 mph - N/A   Clear
5:40 AM 66.9 °F - 64.9 °F 93% 29.98 in 1.8 mi Calm Calm - N/A   Clear
5:53 AM 66.9 °F - 64.9 °F 93% 29.94 in 0.8 mi Calm Calm - N/A   Clear
5:58 AM 68.0 °F - 66.0 °F 93% 29.98 in 0.2 mi Calm Calm - N/A Fog Fog
6:35 AM 66.0 °F - 64.9 °F 96% 29.99 in 0.2 mi Calm Calm - N/A Fog Fog
6:53 AM 66.0 °F - 64.9 °F 96% 29.95 in 0.2 mi Calm Calm - N/A Fog Fog
7:50 AM 68.0 °F - 66.2 °F 94% 30.00 in 0.2 mi Calm Calm - N/A Fog Fog
7:53 AM 68.0 °F - 66.9 °F 96% 29.95 in 0.2 mi Calm Calm - N/A Fog Fog
8:16 AM 70.0 °F - 68.0 °F 93% 30.00 in 0.5 mi Calm Calm - N/A Fog Fog
8:24 AM 70.0 °F - 69.1 °F 97% 30.00 in 2.0 mi SE 3.5 mph - N/A   Mostly Cloudy
8:31 AM 70.0 °F - 69.1 °F 97% 30.00 in 5.0 mi Calm Calm - N/A   Scattered Clouds
8:53 AM 71.1 °F - 68.0 °F 90% 29.96 in 10.0 mi NE 3.5 mph - N/A   Clear
9:53 AM 77.0 °F - 69.1 °F 76% 29.97 in 10.0 mi SE 4.6 mph - N/A   Clear
10:53 AM 80.1 °F 82.9 °F 69.1 °F 69% 29.97 in 10.0 mi ESE 5.8 mph - N/A   Clear
11:53 AM 82.9 °F 86.5 °F 69.1 °F 63% 29.96 in 10.0 mi East 6.9 mph - N/A   Clear
12:53 PM 84.9 °F 88.2 °F 68.0 °F 57% 29.96 in 10.0 mi East 6.9 mph - N/A   Clear
1:53 PM 86.0 °F 90.1 °F 69.1 °F 57% 29.94 in 10.0 mi East 5.8 mph - N/A   Clear
2:53 PM 87.1 °F 92.0 °F 70.0 °F 57% 29.93 in 10.0 mi SE 5.8 mph - N/A   Clear
3:53 PM 87.1 °F 92.0 °F 70.0 °F 57% 29.91 in 10.0 mi SSE 5.8 mph - N/A   Clear
4:53 PM 87.1 °F 92.0 °F 70.0 °F 57% 29.88 in 10.0 mi SE 9.2 mph - N/A   Clear
5:53 PM 87.1 °F 92.0 °F 70.0 °F 57% 29.87 in 10.0 mi SE 9.2 mph - N/A   Clear
6:53 PM 84.0 °F 89.0 °F 71.1 °F 65% 29.87 in 10.0 mi ESE 5.8 mph - N/A   Clear
7:53 PM 79.0 °F - 71.1 °F 77% 29.85 in 10.0 mi East 8.1 mph - N/A   Clear
8:33 PM 73.0 °F - 60.1 °F 64% 29.97 in 10.0 mi North 38.0 mph 50.6 mph N/A Thunderstorm Thunderstorm
8:53 PM 66.9 °F - 62.1 °F 84% 29.99 in 6.0 mi West 16.1 mph 24.2 mph 0.03 in Rain , Thunderstorm Thunderstorms and Rain
9:00 PM 66.9 °F - 62.1 °F 84% 30.02 in 4.0 mi SSW 13.8 mph 19.6 mph 0.03 in Rain , Thunderstorm Thunderstorms and Rain
9:14 PM 66.9 °F - 62.1 °F 84% 30.03 in 9.0 mi North 15.0 mph 23.0 mph 0.09 in Rain , Thunderstorm Light Thunderstorms and Rain
9:53 PM 70.0 °F - 61.0 °F 73% 29.99 in 10.0 mi NNE 16.1 mph - 0.09 in Rain , Thunderstorm Light Rain
10:03 PM 69.1 °F - 62.1 °F 78% 30.02 in 10.0 mi NE 16.1 mph - 0.02 in Rain , Thunderstorm Light Rain
10:36 PM 69.1 °F - 61.0 °F 75% 29.95 in 10.0 mi East 24.2 mph 34.5 mph 0.03 in   Overcast
10:53 PM 69.1 °F - 60.1 °F 73% 29.88 in 10.0 mi East 20.7 mph 27.6 mph 0.03 in   Scattered Clouds
11:53 PM 72.0 °F - 57.0 °F 59% 29.86 in 10.0 mi SE 17.3 mph 28.8 mph N/A   Clear